This demonstration page uses our WeatherBlox Daily Observations layout. Learn more.

Left ArrowRight Arrow

41.12389, -100.76542

Hourly Observations for December 21, 2017

Temp ( °F °C ) Dew Point ( °F °C ) Humidity (%) Winds ( mph kmh ) Pressure ( in mb ) Visibility ( mi km ) Precip ( " mm )
12:53 am 00:53 Clear 35 1.7 30 -1.1 82 82 N 12 19 29.75 1007 10 16 0.00 0.00
1:41 am 01:41 Mostly Cloudy 35 1.7 31 -0.6 85 85 NE 10 17 29.83 1010 10 16 0.00 0.00
1:53 am 01:53 Mostly Cloudy 35 1.7 30 -1.1 82 82 NE 8 13 29.75 1007 10 16 0.00 0.00
2:36 am 02:36 Cloudy 37 2.8 27 -2.8 67 67 N 18 30 29.83 1010 10 16 0.00 0.00
2:53 am 02:53 Cloudy 36 2.2 26 -3.3 67 67 NNE 23 37 29.77 1008 10 16 0.00 0.00
3:53 am 03:53 Partly Cloudy 31 -0.6 24 -4.4 76 76 NNE 26 43 29.80 1009 10 16 0.00 0.00
4:40 am 04:40 Mostly Cloudy 29 -1.7 21 -6.1 72 72 N 18 30 29.94 1014 10 16 0.00 0.00
4:53 am 04:53 Cloudy 29 -1.7 20 -6.7 69 69 N 20 31 29.83 1010 10 16 0.00 0.00
5:53 am 05:53 Cloudy 26 -3.3 17 -8.3 69 69 N 22 35 29.89 1012 10 16 0.00 0.00
6:53 am 06:53 Cloudy 24 -4.4 16 -8.9 71 71 NNE 25 41 29.91 1013 10 16 0.00 0.00
7:53 am 07:53 Cloudy 22 -5.6 16 -8.9 78 78 N 29 46 29.94 1014 10 16 0.00 0.00
8:53 am 08:53 Cloudy 21 -6.1 16 -8.9 81 81 N 24 39 29.98 1015 9 14 0.00 0.00
9:53 am 09:53 Cloudy 21 -6.1 16 -8.9 81 81 N 10 17 30.07 1018 10 16 0.00 0.00
10:53 am 10:53 Cloudy with Light Snow 21 -6.1 16 -8.9 81 81 N 17 28 30.10 1019 7 11 0.00 0.03
11:08 am 11:08 Cloudy with Light Freezing Rain 20 -6.7 16 -8.9 85 85 NNW 20 31 30.21 1023 5 8 0.00 0.03
11:36 am 11:36 Cloudy 20 -6.7 15 -9.4 81 81 NNW 20 31 30.21 1023 10 16 0.00 0.03
11:43 am 11:43 Cloudy 19 -7.2 15 -9.4 84 84 NNW 16 26 30.24 1024 10 16 0.00 0.03
11:53 am 11:53 Cloudy with Light Snow 19 -7.2 14 -10 81 81 NNW 15 24 30.11 1020 10 16 0.00 0.03
12:53 pm 12:53 Cloudy with Light Snow 18 -7.8 12 -11.1 77 77 N 14 22 30.11 1020 9 14 0.00 0.03
1:50 pm 13:50 Windy with Snow Likely 18 -8 12 -11 79 79 N 21 33 30.24 1024 2 3 0.00 0.03
1:53 pm 13:53 Cloudy with Light Snow 18 -7.8 13 -10.6 81 81 N 18 30 30.10 1019 2 2 0.01 0.25
2:00 pm 14:00 Cloudy with Light Snow 18 -7.8 13 -10.6 81 81 N 17 28 30.24 1024 1 1 0.00 0.03
2:21 pm 14:21 Mostly Cloudy with Light Snow 18 -7.8 13 -10.6 81 81 NNW 18 30 30.24 1024 1 2 0.01 0.25
2:28 pm 14:28 Windy with Snow Likely 18 -7.8 12 -11.1 77 77 N 20 31 30.24 1024 2 2 0.01 0.25
2:53 pm 14:53 Cloudy with Light Snow 18 -7.8 12 -11.1 77 77 NNW 15 24 30.11 1020 2 3 0.01 0.25
3:12 pm 15:12 Cloudy with Light Snow 19 -7.2 12 -11.1 74 74 NNW 18 30 30.24 1024 5 8 0.01 0.25
3:19 pm 15:19 Cloudy with Light Snow 19 -7.2 11 -11.7 71 71 NNW 15 24 30.24 1024 6 10 0.01 0.25
3:53 pm 15:53 Cloudy 19 -7.2 11 -11.7 71 71 NNW 16 26 30.13 1020 10 16 0.01 0.25
4:53 pm 16:53 Cloudy with Light Snow 18 -7.8 10 -12.2 71 71 N 15 24 30.16 1021 8 13 0.00 0.03
5:53 pm 17:53 Cloudy with Light Snow 17 -8.3 11 -11.7 77 77 NNW 8 13 30.19 1022 4 6 0.00 0.03
6:11 pm 18:11 Cloudy with Light Snow 17 -8.3 11 -11.7 77 77 NNW 13 20 30.30 1026 3 4 0.01 0.25
6:32 pm 18:32 Cloudy with Light Snow 17 -8.3 11 -11.7 77 77 NNW 12 19 30.30 1026 3 5 0.01 0.25
6:53 pm 18:53 Cloudy with Light Snow 17 -8.3 11 -11.7 77 77 NNW 15 24 30.21 1023 5 8 0.01 0.25
7:29 pm 19:29 Cloudy with Light Snow 17 -8.3 12 -11.1 80 80 NNW 10 17 30.30 1026 3 5 0.01 0.25
7:41 pm 19:41 Cloudy with Light Snow 17 -8.3 12 -11.1 80 80 NNW 10 17 30.33 1027 2 3 0.01 0.25
7:50 pm 19:50 Cloudy with Light Snow 18 -8 12 -11 79 79 NNW 10 17 30.33 1027 2 2 0.01 0.25
7:53 pm 19:53 Cloudy with Light Snow 17 -8.3 12 -11.1 80 80 NNW 9 15 30.22 1024 2 3 0.01 0.25
8:10 pm 20:10 Cloudy with Light Snow 17 -8.3 13 -10.6 84 84 NNW 8 13 30.33 1027 1 2 0.01 0.25
8:17 pm 20:17 Cloudy with Light Snow 17 -8.3 13 -10.6 84 84 NNW 9 15 30.33 1027 1 2 0.02 0.51
8:27 pm 20:27 Cloudy with Light Snow 17 -8.3 12 -11.1 80 80 NNW 13 20 30.33 1027 2 2 0.02 0.51
8:40 pm 20:40 Cloudy with Light Snow 16 -8.9 12 -11.1 84 84 NW 10 17 30.36 1028 3 4 0.02 0.51
8:48 pm 20:48 Cloudy with Light Snow 18 -8 12 -11 79 79 NW 12 19 30.33 1027 4 6 0.03 0.76
8:53 pm 20:53 Cloudy with Light Snow 17 -8.3 12 -11.1 80 80 NNW 10 17 30.23 1024 5 8 0.03 0.76
9:53 pm 21:53 Mostly Cloudy 14 -10 10 -12.2 84 84 NW 8 13 30.25 1024 10 16 0.00 0.03
10:53 pm 22:53 Mostly Clear 9 -12.8 6 -14.4 88 88 WNW 7 11 30.27 1025 10 16 0.00 0.00
11:53 pm 23:53 Mostly Clear 7 -13.9 4 -15.6 87 87 NW 6 9 30.27 1025 10 16 0.00 0.00

Powered by AerisWeather